OMD208 KLAS-KGYR

Flight info

Callsign OMD208
Flight time N/A
Altitude 39000
Route RASLR3 ZAYNE DRK DSERT DSERT2
Aircraft A20N/M-SDE2E3FGHIRWXY/LB1

Departure

Time 2026-05-07 01:15
Airport Harry Reid International Airport (KLAS)

Arrival

Time N/A
Airport Phoenix Goodyear Airport (KGYR)
Time Latitude Longitude Altitude Speed Heading
2026-05-07 00:47 36.08973 -115.15382 2119 ft 0 kts 88°
2026-05-07 00:58 36.08973 -115.15399 2119 ft 2 kts 89°
2026-05-07 00:59 36.08973 -115.15441 2120 ft 2 kts 92°
2026-05-07 00:59 36.08974 -115.15461 2120 ft 2 kts 96°
2026-05-07 00:59 36.08977 -115.15481 2119 ft 2 kts 108°
2026-05-07 01:00 36.08986 -115.15498 2124 ft 2 kts 152°
2026-05-07 01:00 36.08997 -115.15502 2119 ft 1 kts 178°
2026-05-07 01:00 36.08998 -115.15502 2119 ft 0 kts 179°
2026-05-07 01:02 36.08978 -115.15502 2120 ft 9 kts 179°
2026-05-07 01:02 36.08868 -115.15502 2124 ft 23 kts 181°
2026-05-07 01:03 36.08672 -115.15515 2132 ft 30 kts 201°
2026-05-07 01:03 36.08476 -115.15662 2140 ft 20 kts 199°
2026-05-07 01:03 36.08393 -115.15632 2142 ft 5 kts 154°
2026-05-07 01:03 36.08350 -115.15607 2143 ft 10 kts 155°
2026-05-07 01:04 36.08259 -115.15557 2144 ft 18 kts 155°
2026-05-07 01:04 36.08218 -115.15534 2145 ft 20 kts 156°
2026-05-07 01:04 36.07837 -115.15310 2138 ft 24 kts 155°
2026-05-07 01:05 36.07804 -115.15183 2136 ft 16 kts 90°
2026-05-07 01:05 36.07798 -115.15024 2131 ft 21 kts 95°
2026-05-07 01:05 36.07785 -115.14826 2126 ft 25 kts 94°
2026-05-07 01:05 36.07768 -115.14587 2116 ft 30 kts 95°
2026-05-07 01:06 36.07758 -115.14409 2111 ft 33 kts 95°
2026-05-07 01:06 36.07753 -115.14124 2101 ft 29 kts 90°
2026-05-07 01:06 36.07752 -115.13911 2094 ft 25 kts 91°
2026-05-07 01:06 36.07753 -115.13592 2083 ft 31 kts 90°
2026-05-07 01:07 36.07753 -115.13314 2074 ft 26 kts 89°
2026-05-07 01:07 36.07754 -115.13157 2067 ft 29 kts 90°
2026-05-07 01:07 36.07754 -115.12818 2055 ft 18 kts 91°
2026-05-07 01:07 36.07754 -115.12638 2048 ft 24 kts 89°
2026-05-07 01:08 36.07755 -115.12464 2043 ft 13 kts 89°
2026-05-07 01:08 36.07754 -115.12352 2039 ft 15 kts 89°
2026-05-07 01:08 36.07755 -115.12275 2037 ft 0 kts 89°
2026-05-07 01:09 36.07755 -115.12266 2037 ft 3 kts 90°
2026-05-07 01:09 36.07755 -115.12250 2036 ft 3 kts 90°
2026-05-07 01:09 36.07755 -115.12243 2036 ft 2 kts 90°
2026-05-07 01:09 36.07755 -115.12235 2035 ft 0 kts 90°
2026-05-07 01:10 36.07755 -115.12230 2035 ft 3 kts 90°
2026-05-07 01:10 36.07755 -115.12185 2034 ft 8 kts 90°
2026-05-07 01:10 36.07743 -115.12145 2032 ft 0 kts 131°
2026-05-07 01:11 36.07743 -115.12144 2032 ft 1 kts 131°
2026-05-07 01:11 36.07728 -115.12132 2032 ft 5 kts 154°
2026-05-07 01:11 36.07664 -115.12130 2034 ft 11 kts 192°
2026-05-07 01:11 36.07643 -115.12182 2033 ft 0 kts 270°
2026-05-07 01:12 36.07643 -115.12183 2033 ft 0 kts 270°
2026-05-07 01:12 36.07643 -115.12184 2033 ft 0 kts 270°
2026-05-07 01:13 36.07643 -115.12197 2034 ft 5 kts 270°
2026-05-07 01:14 36.07643 -115.12228 2034 ft 0 kts 270°
2026-05-07 01:14 36.07643 -115.12234 2035 ft 0 kts 270°
2026-05-07 01:14 36.07643 -115.12235 2035 ft 1 kts 270°
2026-05-07 01:14 36.07643 -115.12308 2036 ft 28 kts 270°
2026-05-07 01:15 36.07642 -115.12911 2058 ft 111 kts 270°
2026-05-07 01:15 36.07640 -115.14158 2115 ft 175 kts 269°
2026-05-07 01:15 36.07639 -115.15657 2964 ft 167 kts 270°
2026-05-07 01:15 36.07636 -115.17068 3836 ft 170 kts 269°
2026-05-07 01:16 36.07629 -115.18690 4323 ft 209 kts 269°
2026-05-07 01:16 36.07599 -115.20669 4857 ft 245 kts 267°
2026-05-07 01:16 36.07406 -115.22848 5556 ft 267 kts 259°
2026-05-07 01:16 36.06780 -115.24983 6666 ft 264 kts 239°
2026-05-07 01:17 36.05469 -115.26554 7442 ft 273 kts 211°
2026-05-07 01:17 36.03677 -115.27554 7858 ft 289 kts 201°
2026-05-07 01:17 36.01760 -115.28361 7988 ft 292 kts 195°
2026-05-07 01:17 35.99735 -115.28588 8249 ft 297 kts 173°
2026-05-07 01:18 35.97790 -115.27693 9179 ft 303 kts 146°
2026-05-07 01:18 35.96132 -115.26087 10393 ft 307 kts 137°
2026-05-07 01:18 35.94474 -115.24266 11099 ft 334 kts 136°
2026-05-07 01:18 35.92685 -115.22261 11731 ft 357 kts 135°
2026-05-07 01:19 35.91036 -115.19944 12714 ft 363 kts 122°
2026-05-07 01:19 35.89667 -115.17295 13872 ft 367 kts 118°
2026-05-07 01:19 35.88354 -115.14570 14923 ft 371 kts 117°
2026-05-07 01:19 35.87080 -115.11844 15937 ft 373 kts 114°
2026-05-07 01:20 35.86099 -115.08879 16967 ft 374 kts 105°
2026-05-07 01:20 35.85328 -115.05800 17967 ft 378 kts 103°
2026-05-07 01:20 35.84586 -115.02666 18850 ft 383 kts 103°
2026-05-07 01:20 35.83836 -114.99500 19635 ft 388 kts 103°
2026-05-07 01:21 35.83068 -114.96290 20443 ft 393 kts 103°
2026-05-07 01:21 35.82286 -114.93038 21249 ft 398 kts 103°
2026-05-07 01:21 35.81493 -114.89758 22030 ft 403 kts 103°
2026-05-07 01:21 35.80684 -114.86420 22803 ft 407 kts 103°
2026-05-07 01:22 35.79866 -114.83056 23556 ft 412 kts 103°
2026-05-07 01:22 35.79043 -114.79674 24177 ft 416 kts 103°
2026-05-07 01:22 35.78204 -114.76234 24821 ft 420 kts 102°
2026-05-07 01:22 35.77359 -114.72774 25450 ft 423 kts 102°
2026-05-07 01:23 35.76507 -114.69289 26036 ft 427 kts 102°
2026-05-07 01:23 35.75644 -114.65766 26582 ft 430 kts 102°
2026-05-07 01:23 35.74778 -114.62235 27148 ft 433 kts 102°
2026-05-07 01:23 35.73902 -114.58669 27683 ft 437 kts 102°
2026-05-07 01:24 35.73017 -114.55074 28200 ft 440 kts 102°
2026-05-07 01:24 35.72126 -114.51456 28678 ft 444 kts 102°
2026-05-07 01:24 35.71188 -114.47823 29202 ft 449 kts 105°
2026-05-07 01:24 35.69937 -114.44278 29713 ft 457 kts 113°
2026-05-07 01:25 35.68214 -114.40938 30163 ft 466 kts 122°
2026-05-07 01:25 35.66022 -114.37944 30558 ft 476 kts 132°
2026-05-07 01:25 35.63544 -114.35229 31086 ft 477 kts 135°
2026-05-07 01:25 35.61015 -114.32583 31704 ft 475 kts 135°
2026-05-07 01:26 35.58495 -114.29955 32275 ft 473 kts 135°
2026-05-07 01:26 35.55996 -114.27340 32843 ft 472 kts 135°
2026-05-07 01:26 35.53499 -114.24721 33381 ft 471 kts 134°
2026-05-07 01:26 35.50999 -114.22095 33934 ft 470 kts 134°
2026-05-07 01:27 35.48490 -114.19460 34407 ft 469 kts 134°
2026-05-07 01:27 35.46042 -114.16889 34841 ft 468 kts 134°
2026-05-07 01:27 35.43578 -114.14302 35337 ft 466 kts 135°
2026-05-07 01:27 35.41112 -114.11716 35785 ft 466 kts 134°
2026-05-07 01:28 35.38646 -114.09131 36210 ft 465 kts 134°
2026-05-07 01:28 35.36188 -114.06558 36635 ft 464 kts 134°
2026-05-07 01:28 35.33820 -114.03890 37100 ft 459 kts 129°
2026-05-07 01:28 35.31804 -114.00896 37516 ft 452 kts 120°
2026-05-07 01:29 35.30202 -113.97628 37912 ft 447 kts 113°
2026-05-07 01:29 35.28904 -113.94181 38309 ft 442 kts 106°
2026-05-07 01:29 35.27939 -113.90651 38696 ft 439 kts 102°
2026-05-07 01:29 35.27068 -113.87069 38971 ft 439 kts 102°
2026-05-07 01:30 35.26226 -113.83464 39046 ft 440 kts 101°
2026-05-07 01:30 35.24577 -113.76259 39029 ft 440 kts 101°
2026-05-07 01:31 35.22939 -113.69058 38997 ft 440 kts 101°
2026-05-07 01:31 35.21298 -113.61848 38971 ft 440 kts 101°
2026-05-07 01:32 35.19650 -113.54626 38946 ft 440 kts 101°
2026-05-07 01:32 35.18003 -113.47426 38935 ft 440 kts 102°
2026-05-07 01:33 35.16344 -113.40195 38934 ft 440 kts 102°
2026-05-07 01:33 35.14689 -113.33001 38940 ft 441 kts 102°
2026-05-07 01:34 35.13020 -113.25773 38946 ft 441 kts 102°
2026-05-07 01:34 35.11634 -113.19783 38946 ft 442 kts 102°
2026-05-07 01:35 35.09672 -113.11329 38952 ft 442 kts 102°
2026-05-07 01:35 35.07998 -113.04143 38955 ft 443 kts 102°
2026-05-07 01:36 35.06309 -112.96912 38959 ft 444 kts 102°
2026-05-07 01:36 35.05736 -112.94463 38952 ft 444 kts 102°
2026-05-07 01:37 35.01271 -112.75467 38957 ft 446 kts 103°
2026-05-07 01:38 35.00249 -112.71139 38947 ft 446 kts 103°
2026-05-07 01:39 34.99155 -112.66515 38953 ft 447 kts 103°
2026-05-07 01:39 34.97425 -112.59218 38956 ft 448 kts 103°
2026-05-07 01:40 34.95696 -112.51950 38976 ft 449 kts 103°
2026-05-07 01:40 34.93249 -112.44902 39000 ft 456 kts 120°
2026-05-07 01:41 34.89495 -112.38626 39020 ft 459 kts 124°
2026-05-07 01:41 34.85619 -112.32441 39024 ft 461 kts 125°
2026-05-07 01:42 34.81731 -112.26222 39028 ft 461 kts 125°
2026-05-07 01:42 34.77796 -112.19922 39023 ft 462 kts 125°
2026-05-07 01:43 34.73903 -112.13681 39005 ft 463 kts 125°
2026-05-07 01:43 34.70017 -112.07460 38982 ft 464 kts 125°
2026-05-07 01:44 34.66110 -112.01217 38992 ft 465 kts 126°
2026-05-07 01:44 34.62193 -111.94966 38862 ft 460 kts 126°
2026-05-07 01:44 34.60272 -111.91907 38035 ft 452 kts 125°
2026-05-07 01:45 34.58373 -111.88886 36942 ft 450 kts 124°
2026-05-07 01:45 34.56479 -111.85873 35903 ft 447 kts 124°
2026-05-07 01:45 34.54606 -111.82897 34880 ft 443 kts 123°
2026-05-07 01:45 34.52757 -111.79963 33852 ft 438 kts 122°
2026-05-07 01:46 34.50895 -111.77007 32550 ft 435 kts 122°
2026-05-07 01:46 34.49061 -111.74146 31121 ft 437 kts 125°
2026-05-07 01:46 34.46867 -111.71531 29532 ft 447 kts 137°
2026-05-07 01:46 34.44167 -111.69591 27690 ft 460 kts 153°
2026-05-07 01:47 34.41045 -111.68567 25863 ft 472 kts 170°
2026-05-07 01:47 34.37759 -111.68634 24379 ft 474 kts 186°
2026-05-07 01:47 34.34549 -111.69481 23453 ft 470 kts 193°
2026-05-07 01:47 34.31373 -111.70473 22897 ft 463 kts 193°
2026-05-07 01:48 34.28302 -111.71435 22124 ft 454 kts 193°
2026-05-07 01:48 34.26630 -111.71955 21690 ft 449 kts 193°
2026-05-07 01:51 34.25858 -111.72194 21497 ft 447 kts 193°
2026-05-07 01:52 34.21846 -111.73427 20434 ft 438 kts 192°
2026-05-07 01:52 34.19897 -111.74021 19910 ft 435 kts 193°
2026-05-07 01:52 34.16985 -111.74907 19115 ft 429 kts 193°
2026-05-07 01:52 34.14094 -111.75784 18333 ft 425 kts 193°
2026-05-07 01:53 34.11246 -111.76647 17483 ft 420 kts 193°
2026-05-07 01:53 34.08439 -111.77495 16728 ft 413 kts 193°
2026-05-07 01:53 34.05674 -111.78329 15968 ft 407 kts 193°
2026-05-07 01:53 34.02938 -111.79154 15204 ft 401 kts 193°
2026-05-07 01:54 34.00249 -111.79965 14462 ft 397 kts 193°
2026-05-07 01:54 33.97583 -111.80768 13723 ft 392 kts 193°
2026-05-07 01:54 33.94950 -111.81561 12950 ft 388 kts 193°
2026-05-07 01:54 33.92356 -111.82343 12237 ft 382 kts 193°
2026-05-07 01:55 33.89790 -111.83115 11514 ft 377 kts 193°
2026-05-07 01:55 33.87283 -111.83869 11220 ft 359 kts 194°
2026-05-07 01:55 33.84961 -111.84694 11113 ft 337 kts 199°
2026-05-07 01:55 33.82816 -111.85619 11012 ft 318 kts 200°
2026-05-07 01:56 33.80803 -111.86519 10907 ft 303 kts 200°
2026-05-07 01:56 33.78847 -111.87396 10626 ft 298 kts 200°
2026-05-07 01:56 33.76899 -111.88268 10168 ft 301 kts 200°
2026-05-07 01:56 33.74920 -111.89152 9702 ft 303 kts 200°
2026-05-07 01:57 33.72953 -111.90029 9252 ft 302 kts 200°
2026-05-07 01:57 33.71013 -111.90893 8817 ft 300 kts 200°
2026-05-07 01:57 33.69062 -111.91763 8374 ft 298 kts 200°
2026-05-07 01:57 33.68569 -111.91982 8269 ft 297 kts 201°
2026-05-07 01:58 33.67943 -111.92261 8134 ft 296 kts 200°
2026-05-07 02:00 33.67549 -111.92436 8035 ft 295 kts 200°
2026-05-07 02:00 33.65624 -111.93291 7612 ft 293 kts 201°
2026-05-07 02:00 33.63721 -111.94136 7186 ft 290 kts 201°
2026-05-07 02:01 33.62473 -111.94691 6897 ft 288 kts 201°
2026-05-07 02:02 33.61348 -111.95190 6648 ft 286 kts 201°
2026-05-07 02:03 33.60792 -111.95437 6521 ft 286 kts 202°
2026-05-07 02:03 33.58940 -111.96259 6090 ft 282 kts 202°
2026-05-07 02:03 33.57109 -111.97072 5670 ft 278 kts 202°